This demonstration page uses our WeatherBlox Daily Observations layout. Learn more.

Left ArrowRight Arrow

Hourly Observations for May 5, 2019

Temp ( °F °C ) Dew Point ( °F °C ) Humidity (%) Winds ( mph kmh ) Pressure ( in mb ) Visibility ( mi km ) Precip ( " mm )
12:15 am 00:15 Clear 48 9 48 9 100 100 NE 6 9 29.91 1013 10 16.0934 N/A
12:36 am 00:36 Clear 48 9 48 9 100 100 NE 6 9 29.9 1013 10 16.0934 N/A
12:55 am 00:55 Clear 48 9 48 9 100 100 NNE 5 7 29.9 1013 10 16.0934 N/A
1:15 am 01:15 Clear 46 8 46 8 100 100 N 6 9 29.91 1013 10 16.0934 N/A
1:35 am 01:35 Clear 46 8 46 8 100 100 N 6 9 29.91 1013 10 16.0934 N/A
1:55 am 01:55 Clear 46 8 46 8 100 100 NNE 5 7 29.91 1013 10 16.0934 N/A
2:15 am 02:15 Clear 46 8 46 8 100 100 N 5 7 29.9 1012 10 16.0934 N/A
2:35 am 02:35 Clear 45 7 45 7 100 100 N 5 7 29.9 1013 7 11.26538 N/A
2:55 am 02:55 Clear 45 7 45 7 100 100 N 5 7 29.89 1012 7 11.26538 N/A
3:15 am 03:15 Clear 45 7 45 7 100 100 N 5 7 29.89 1012 7 11.26538 N/A
3:35 am 03:35 Clear 45 7 45 7 100 100 N 5 7 29.89 1012 10 16.0934 N/A
3:55 am 03:55 Clear 45 7 45 7 100 100 N 6 9 29.89 1012 7 11.26538 N/A
4:15 am 04:15 Clear 43 6 43 6 100 100 N 7 11 29.89 1012 10 16.0934 N/A
4:36 am 04:36 Clear 43 6 43 6 100 100 N 6 9 29.89 1012 10 16.0934 N/A
4:55 am 04:55 Clear 43 6 43 6 100 100 N 6 9 29.89 1012 10 16.0934 N/A
5:15 am 05:15 Clear 43 6 43 6 100 100 N 5 7 29.89 1012 10 16.0934 N/A
5:35 am 05:35 Clear 43 6 43 6 100 100 N 6 9 29.89 1012 10 16.0934 N/A
5:55 am 05:55 Clear 43 6 43 6 100 100 N 7 11 29.89 1012 7 11.26538 N/A
6:15 am 06:15 Clear 43 6 43 6 100 100 N 7 11 29.89 1012 7 11.26538 N/A
6:35 am 06:35 Clear 43 6 43 6 100 100 N 7 11 29.89 1012 5 8.0467 N/A
6:55 am 06:55 Sunny 43 6 43 6 100 100 N 7 11 29.89 1012 5 8.0467 N/A
7:15 am 07:15 Sunny 43 6 43 6 100 100 N 7 11 29.9 1013 5 8.0467 N/A
7:35 am 07:35 Sunny 45 7 45 7 100 100 N 8 13 29.91 1013 5 8.0467 N/A
7:55 am 07:55 Sunny 46 8 46 8 100 100 N 9 15 29.92 1013 5 8.0467 N/A
8:15 am 08:15 Sunny 46 8 46 8 100 100 N 8 13 29.92 1013 7 11.26538 N/A
8:35 am 08:35 Sunny 48 9 48 9 100 100 N 9 15 29.92 1013 7 11.26538 N/A
8:55 am 08:55 Sunny 50 10 50 10 100 100 NNE 8 13 29.92 1013 10 16.0934 N/A
9:15 am 09:15 Sunny 52 11 50 10 94 94 NE 10 17 29.93 1013 10 16.0934 N/A
9:35 am 09:35 Sunny 54 12 50 10 88 88 NNE 8 13 29.92 1013 10 16.0934 N/A
9:55 am 09:55 Sunny 55 13 50 10 82 82 NNE 12 19 29.92 1013 10 16.0934 N/A
10:15 am 10:15 Sunny 57 14 52 11 82 82 NNE 9 15 29.92 1013 10 16.0934 N/A
10:35 am 10:35 Sunny 57 14 50 10 77 77 NNE 13 20 29.92 1013 10 16.0934 N/A
10:55 am 10:55 Sunny 59 15 50 10 72 72 NNE 10 17 29.91 1013 10 16.0934 N/A
11:15 am 11:15 Sunny 59 15 52 11 77 77 NE 10 17 29.9 1013 10 16.0934 N/A
11:35 am 11:35 Sunny 61 16 50 10 68 68 NE 13 20 29.91 1013 10 16.0934 N/A
11:55 am 11:55 Sunny 63 17 50 10 64 64 NE 10 17 29.91 1013 10 16.0934 N/A
12:15 pm 12:15 Sunny 63 17 50 10 64 64 NE 7 11 29.92 1013 10 16.0934 N/A
12:35 pm 12:35 Sunny 63 17 50 10 64 64 NNE 8 13 29.92 1013 10 16.0934 N/A
12:55 pm 12:55 Sunny 64 18 50 10 60 60 NE 8 13 29.91 1013 10 16.0934 N/A
1:15 pm 13:15 Sunny 64 18 48 9 56 56 NNE 3 6 29.91 1013 10 16.0934 N/A
1:35 pm 13:35 Sunny 64 18 48 9 56 56 N N/A 29.9 1013 10 16.0934 N/A
1:55 pm 13:55 Sunny 64 18 48 9 56 56 NNE 9 15 29.9 1013 10 16.0934 N/A
2:15 pm 14:15 Sunny 66 19 50 10 56 56 N 5 7 29.9 1013 10 16.0934 N/A
2:35 pm 14:35 Sunny 66 19 48 9 52 52 NNE 3 6 29.89 1012 10 16.0934 N/A
2:55 pm 14:55 Sunny 66 19 50 10 56 56 N N/A 29.89 1012 10 16.0934 N/A
3:16 pm 15:16 Sunny 68 20 50 10 53 53 NE 5 7 29.88 1012 10 16.0934 N/A
3:35 pm 15:35 Sunny 68 20 50 10 53 53 NE 7 11 29.88 1012 10 16.0934 N/A
3:55 pm 15:55 Sunny 68 20 50 10 53 53 N N/A 29.88 1012 10 16.0934 N/A
4:15 pm 16:15 Sunny 68 20 52 11 56 56 NW 6 9 29.87 1011 10 16.0934 N/A
4:35 pm 16:35 Sunny 68 20 50 10 53 53 NNE 6 9 29.87 1011 10 16.0934 N/A
4:55 pm 16:55 Sunny 68 20 50 10 53 53 NE 5 7 29.87 1011 10 16.0934 N/A
5:15 pm 17:15 Sunny 70 21 52 11 53 53 N 7 11 29.87 1011 10 16.0934 N/A
5:35 pm 17:35 Sunny 68 20 50 10 53 53 N N/A 29.87 1011 10 16.0934 N/A
5:55 pm 17:55 Sunny 68 20 52 11 56 56 NNW 5 7 29.87 1011 10 16.0934 N/A
6:15 pm 18:15 Sunny 68 20 52 11 56 56 NNE 5 7 29.87 1011 10 16.0934 N/A
6:36 pm 18:36 Sunny 68 20 52 11 56 56 N 3 6 29.87 1011 10 16.0934 N/A
6:55 pm 18:55 Sunny 66 19 52 11 60 60 NNE 3 6 29.87 1012 10 16.0934 N/A
7:15 pm 19:15 Sunny 66 19 54 12 64 64 N 5 7 29.88 1012 10 16.0934 N/A
7:35 pm 19:35 Sunny 64 18 54 12 68 68 N 3 6 29.88 1012 10 16.0934 N/A
7:55 pm 19:55 Sunny 64 18 54 12 68 68 NNE 3 6 29.88 1012 10 16.0934 N/A
8:15 pm 20:15 Sunny 64 18 54 12 68 68 NNE 3 6 29.88 1012 10 16.0934 N/A
8:35 pm 20:35 Sunny 63 17 54 12 73 73 N N/A 29.89 1012 10 16.0934 N/A
8:55 pm 20:55 Clear 61 16 55 13 83 83 N N/A 29.9 1013 10 16.0934 N/A
9:15 pm 21:15 Clear 59 15 57 14 94 94 N N/A 29.9 1013 10 16.0934 N/A
9:35 pm 21:35 Clear 57 14 55 13 94 94 N N/A 29.92 1013 10 16.0934 N/A
9:55 pm 21:55 Clear 57 14 54 12 88 88 N N/A 29.94 1014 10 16.0934 N/A
10:15 pm 22:15 Clear 55 13 54 12 94 94 N N/A 29.94 1014 10 16.0934 N/A
10:35 pm 22:35 Clear 55 13 55 13 100 100 N N/A 29.94 1014 10 16.0934 N/A
10:55 pm 22:55 Clear 55 13 55 13 100 100 N N/A 29.95 1014 10 16.0934 N/A
11:15 pm 23:15 Clear 54 12 54 12 100 100 N N/A 29.95 1014 10 16.0934 N/A
11:35 pm 23:35 Clear 54 12 54 12 100 100 N N/A 29.95 1014 10 16.0934 N/A
11:55 pm 23:55 Clear 54 12 54 12 100 100 N N/A 29.95 1014 10 16.0934 N/A

Powered by AerisWeather